(321247) = 2006 QO180 = 2009 BF139

Discovered at Kitt Peak on 2009-01-29 by Spacewatch.

Orbit

Orbit type: Main Belt

Note: WebGL enabled browser required.

epoch2023-09-13.0
epoch JD2460200.5
perihelion date2020-10-06.70736
perihelion JD2459129.20736
argument of perihelion (°)95.14877
ascending node (°)146.83914
inclination (°)2.32182
eccentricity0.0788963
perihelion distance (AU)2.7372671
Tisserand w.r.t. Jupiter3.3
ΔV w.r.t. Earth (km/sec)10.3
semimajor axis (AU)2.9717251
mean anomaly (°)206.10997
mean daily motion (°/day)0.19239370
aphelion distance (AU)3.206
period (years)5.12
P-vector [x]-0.46921057
P-vector [y]-0.82541953
P-vector [z]-0.31388539
Q-vector [x]0.88280824
Q-vector [y]-0.42951303
Q-vector [z]-0.19017934
absolute magnitude16.94
phase slope0.15
uncertainty0
referenceMPEC 2024-A65
observations used172
oppositions18
arc length (days)10897
first opposition used1994
last opposition used2024
residual rms (arc-secs)0.81
perturbers coarse indicatorM-v
perturbers precise indicator003Ek
first observation date used1994-03-04.0
last observation date used2024-01-03.0
computer nameMPCLINUX
JD of orbit computation2456731.609698
perihelion JD uncertainty (days)3.3475E-04
argument of perihelion uncertainty (°)1.5086E-04
ascending node uncertainty (°)1.3713E-04
inclination uncertainty (°)8.8669E-06
eccentricity uncertainty 5.2303E-08
perihelion distance uncertainty (AU)1.4790E-07
Minimum Orbit Intersection Distances (in AU)
for orbit epoch: 2459800.5, reference: E2022-V57
Mercury2.28562
Venus2.02341
Earth1.73681
Mars1.17826
Jupiter1.78891
Saturn5.88165
Uranus15.4882
Neptune26.6974

Observations

175 total observations over interval: 1994 03 04.26509 – 2024 01 03.72318
These data are available for download (format description).

Date (UT) J2000 RA J2000 Dec Magn Location Ref
1994 03 04.26509 11 22 57.07 +05 18 12.3 20.7 V 691 – Steward Observatory, Kitt Peak-Spacewatch MPS 278793
1994 03 04.29713 11 22 55.49 +05 18 23.3   691 – Steward Observatory, Kitt Peak-Spacewatch MPS 278793
1994 03 04.32945 11 22 53.94 +05 18 34.5   691 – Steward Observatory, Kitt Peak-Spacewatch MPS 278793
2004 02 12.32660 09 56 51.12 +12 24 43.8 21.6 V 691 – Steward Observatory, Kitt Peak-Spacewatch MPS 278793
2004 02 12.35794 09 56 49.56 +12 24 53.2 21.3 V 691 – Steward Observatory, Kitt Peak-Spacewatch MPS 278793
2004 02 12.38561 09 56 48.15 +12 25 01.6 21.6 V 691 – Steward Observatory, Kitt Peak-Spacewatch MPS 278793
2005 06 27.17574 15 59 36.80 -17 11 34.8 21.0 V 691 – Steward Observatory, Kitt Peak-Spacewatch MPS 278793
2005 06 27.19118 15 59 36.35 -17 11 34.1 21.1 V 691 – Steward Observatory, Kitt Peak-Spacewatch MPS 278793
2005 06 27.20675 15 59 35.90 -17 11 34.2 21.2 V 691 – Steward Observatory, Kitt Peak-Spacewatch MPS 278793
2006 08 23.19402 23 10 38.28 -06 10 14.5 19.9 R 807 – Cerro Tololo Observatory, La Serena MPS 182516
2006 08 23.26252 23 10 35.37 -06 10 35.5   807 – Cerro Tololo Observatory, La Serena MPS 182516
2006 08 27.30621 23 07 45.30 -06 31 38.1 21.4 V 691 – Steward Observatory, Kitt Peak-Spacewatch MPS 182516
2006 08 27.32356 23 07 44.53 -06 31 43.6 21.2 V 691 – Steward Observatory, Kitt Peak-Spacewatch MPS 182516
2006 08 27.34092 23 07 43.76 -06 31 49.3 21.1 V 691 – Steward Observatory, Kitt Peak-Spacewatch MPS 182516
2006 09 26.23939 22 46 21.82 -09 01 58.0 21.6 V G96 – Mt. Lemmon Survey MPS 278793
2006 09 26.24611 22 46 21.61 -09 01 59.7 21.0 V G96 – Mt. Lemmon Survey MPS 278793
2006 09 26.25292 22 46 21.32 -09 02 01.1 21.5 V G96 – Mt. Lemmon Survey MPS 278793
2006 09 26.25980 22 46 21.00 -09 02 02.6 21.3 V G96 – Mt. Lemmon Survey MPS 278793
2007 10 20.37859 04 15 02.44 +18 04 26.9 22.1 V G96 – Mt. Lemmon Survey MPS 278793
2007 10 20.38521 04 15 02.26 +18 04 26.3 21.6 V G96 – Mt. Lemmon Survey MPS 278793
2007 10 20.39185 04 15 02.12 +18 04 25.2 22.0 V G96 – Mt. Lemmon Survey MPS 278793
2007 10 20.39840 04 15 01.87 +18 04 25.0 21.3 V G96 – Mt. Lemmon Survey MPS 278793
2009 01 15.41833 09 26 36.16 +14 07 37.8 21.4 V 691 – Steward Observatory, Kitt Peak-Spacewatch MPS 276704
2009 01 15.43645 09 26 35.45 +14 07 41.0 21.0 V 691 – Steward Observatory, Kitt Peak-Spacewatch MPS 276704
2009 01 15.45482 09 26 34.69 +14 07 45.3 21.0 V 691 – Steward Observatory, Kitt Peak-Spacewatch MPS 276704
2009 01 29.20922 09 16 20.86 +15 03 22.2   691 – Steward Observatory, Kitt Peak-Spacewatch MPS 276704
2009 01 29.22686 09 16 19.98 +15 03 26.7   691 – Steward Observatory, Kitt Peak-Spacewatch MPS 276704
2009 01 29.25435 09 16 18.56 +15 03 33.8   691 – Steward Observatory, Kitt Peak-Spacewatch MPS 276704
2009 02 03.23436 09 12 09.89 +15 25 34.8 20.8 V 691 – Steward Observatory, Kitt Peak-Spacewatch MPS 276704
2009 02 03.25248 09 12 08.96 +15 25 40.1 20.7 V 691 – Steward Observatory, Kitt Peak-Spacewatch MPS 276704
2009 02 03.27087 09 12 08.00 +15 25 44.8 20.8 V 691 – Steward Observatory, Kitt Peak-Spacewatch MPS 276704
2009 02 26.24415 08 54 04.86 +16 59 56.7 21.6 V G96 – Mt. Lemmon Survey MPS 278793
2009 02 26.24966 08 54 04.64 +16 59 57.9 21.4 V G96 – Mt. Lemmon Survey MPS 278793
2009 02 26.25517 08 54 04.42 +16 59 58.9 21.2 V G96 – Mt. Lemmon Survey MPS 278793
2009 02 26.26063 08 54 04.21 +17 00 00.2 21.2 V G96 – Mt. Lemmon Survey MPS 278793
2010 05 11.28400 15 27 03.49 -15 03 03.8 19.1 V G96 – Mt. Lemmon Survey MPS 326464
2010 05 11.29048 15 27 03.09 -15 03 02.4 20.2 V G96 – Mt. Lemmon Survey MPS 326464
2010 05 11.29699 15 27 02.77 -15 03 01.1 20.2 V G96 – Mt. Lemmon Survey MPS 326464
2010 05 11.30348 15 27 02.41 -15 03 00.0 20.0 V G96 – Mt. Lemmon Survey MPS 326464
2010 05 13.25373 15 25 26.06 -14 56 43.8 21.5 V 691 – Steward Observatory, Kitt Peak-Spacewatch MPS 326464
2010 05 13.27144 15 25 25.14 -14 56 40.7 20.7 V 691 – Steward Observatory, Kitt Peak-Spacewatch MPS 326464
2010 05 13.28658 15 25 24.38 -14 56 37.7 20.7 V 691 – Steward Observatory, Kitt Peak-Spacewatch MPS 326464
2011 08 30.42026 22 14 41.896 -11 16 41.47 21.6 w F51 – Pan-STARRS 1, Haleakala MPS 389193
2011 08 30.43501 22 14 41.196 -11 16 45.54 21.8 w F51 – Pan-STARRS 1, Haleakala MPS 389193
2011 08 30.44974 22 14 40.496 -11 16 50.25 21.5 w F51 – Pan-STARRS 1, Haleakala MPS 389193
2011 08 30.46456 22 14 39.786 -11 16 54.54 21.3 w F51 – Pan-STARRS 1, Haleakala MPS 389193
2012 11 14.31767 03 13 25.57 +14 30 25.2 21.0 V G96 – Mt. Lemmon Survey MPS 443292
2012 11 14.32311 03 13 25.28 +14 30 23.9 20.8 V G96 – Mt. Lemmon Survey MPS 443292
2012 11 14.32855 03 13 24.99 +14 30 22.8 20.7 V G96 – Mt. Lemmon Survey MPS 443292
2012 11 14.33406 03 13 24.70 +14 30 21.6 21.0 V G96 – Mt. Lemmon Survey MPS 443292
2014 01 20.42204 08 32 58.41 +17 26 59.2 20.7 V G96 – Mt. Lemmon Survey MPS 498351
2014 01 20.42674 08 32 58.20 +17 27 00.1 20.8 V G96 – Mt. Lemmon Survey MPS 498351
2014 01 20.43302 08 32 57.86 +17 27 02.0 20.8 V G96 – Mt. Lemmon Survey MPS 498351
2014 01 20.43759 08 32 57.64 +17 27 02.7 20.4 V G96 – Mt. Lemmon Survey MPS 498351
2014 02 08.21361 08 17 00.45 +18 34 28.2 21.1 V G96 – Mt. Lemmon Survey MPS 501569
2014 02 08.21779 08 17 00.23 +18 34 29.0 20.8 V G96 – Mt. Lemmon Survey MPS 501569
2014 02 08.22197 08 16 59.98 +18 34 29.6 20.8 V G96 – Mt. Lemmon Survey MPS 501569
2014 02 20.19530 08 08 35.02 +19 10 31.6 21.7 V G96 – Mt. Lemmon Survey MPS 502254
2014 02 20.19992 08 08 34.85 +19 10 32.5 21.6 V G96 – Mt. Lemmon Survey MPS 502254
2014 02 20.20456 08 08 34.71 +19 10 33.1 21.8 V G96 – Mt. Lemmon Survey MPS 502254
2015 04 20.20952 14 32 35.28 -11 26 25.4 19.8 R 309 – Cerro Paranal MPS 602949
2015 04 20.21074 14 32 35.22 -11 26 25.1 19.9 R 309 – Cerro Paranal MPS 602949
2015 04 20.21194 14 32 35.16 -11 26 24.8 20.3 R 309 – Cerro Paranal MPS 602949
2015 04 20.21315 14 32 35.11 -11 26 24.5 20.2 R 309 – Cerro Paranal MPS 602949
2015 04 20.21436 14 32 35.05 -11 26 24.2 20.0 R 309 – Cerro Paranal MPS 602949
2015 04 23.39497 14 30 08.488 -11 12 43.04 20.7 w F51 – Pan-STARRS 1, Haleakala MPS 602949
2015 04 23.40749 14 30 07.882 -11 12 39.81 20.5 w F51 – Pan-STARRS 1, Haleakala MPS 602949
2015 04 23.41998 14 30 07.275 -11 12 36.51 20.6 w F51 – Pan-STARRS 1, Haleakala MPS 602949
2015 04 23.43246 14 30 06.665 -11 12 33.33 20.5 w F51 – Pan-STARRS 1, Haleakala MPS 602949
2015 04 24.49255 14 29 16.812 -11 07 57.42 20.4 w F51 – Pan-STARRS 1, Haleakala MPS 604490
2015 04 24.50467 14 29 16.213 -11 07 54.24 20.5 w F51 – Pan-STARRS 1, Haleakala MPS 604490
2015 04 24.51677 14 29 15.622 -11 07 51.05 20.6 w F51 – Pan-STARRS 1, Haleakala MPS 604490
2015 04 25.45954 14 28 31.227 -11 03 45.49 20.5 w F51 – Pan-STARRS 1, Haleakala MPS 604490
2015 04 25.47177 14 28 30.621 -11 03 42.38 20.4 w F51 – Pan-STARRS 1, Haleakala MPS 604490
2015 04 25.48387 14 28 30.024 -11 03 39.22 20.4 w F51 – Pan-STARRS 1, Haleakala MPS 604490
2015 04 25.49639 14 28 29.415 -11 03 35.84 20.5 w F51 – Pan-STARRS 1, Haleakala MPS 604490
2015 05 20.24713 14 10 10.44 -09 30 04.7 20.8 V G96 – Mt. Lemmon Survey MPS 608429
2015 05 20.25372 14 10 10.19 -09 30 04.0 20.6 V G96 – Mt. Lemmon Survey MPS 608429
2015 05 20.26030 14 10 09.93 -09 30 02.9 20.5 V G96 – Mt. Lemmon Survey MPS 608430
2015 05 20.26689 14 10 09.69 -09 30 01.4 21.0 V G96 – Mt. Lemmon Survey MPS 608430
2015 05 22.37561 14 08 55.492 -09 24 25.15 21.6 w F51 – Pan-STARRS 1, Haleakala MPS 609707
2015 05 22.38890 14 08 55.011 -09 24 23.06 22.0 w F51 – Pan-STARRS 1, Haleakala MPS 609707
2015 05 22.40215 14 08 54.547 -09 24 20.97 21.6 w F51 – Pan-STARRS 1, Haleakala MPS 609707
2015 05 22.41537 14 08 54.078 -09 24 18.95 21.1 w F51 – Pan-STARRS 1, Haleakala MPS 609707
2015 05 24.35676 14 07 50.281 -09 19 39.00 20.6 i F51 – Pan-STARRS 1, Haleakala MPS 609707
2015 05 24.36970 14 07 49.818 -09 19 37.06 20.6 i F51 – Pan-STARRS 1, Haleakala MPS 609707
2015 05 24.38270 14 07 49.391 -09 19 35.55 20.9 i F51 – Pan-STARRS 1, Haleakala MPS 609707
2016 07 03.39051 21 51 05.96 -12 06 55.3 21.2 V G96 – Mt. Lemmon Survey MPS 719182
2016 07 03.40318 21 51 05.80 -12 06 57.3 21.4 V G96 – Mt. Lemmon Survey MPS 719182
